Find Kosmos-411

NORAD ID: 5210 Int'l Des: 1971-041 Owner: OKB10 Country: SU operational
LEO

Current View

Loading 3D Globe...

About Kosmos-411

Description loading...

Upcoming Passes

Passes for default location (London). Set your location on the main map for personalized predictions.

Altitude History

Loading altitude history...

Two-Line Element Set

1 5210U 71041A 26150.54442963 -.00000027 00000-0 -53123-4 0 9991
2 5210 74.0152 306.5249 0111939 14.1310 48.7202 12.64998925542630
Epoch: May 30, 2026 • Age: 17 hours

Current Status

Altitude 1317.0 km
Velocity 7.24 km/s
Sub-Earth Point 10.96°N, 28.16°W
Type other

Most Searched